Tracking 29606 objects as of 19-Sep-2024
HD Live streaming from Space Station
objects crossing your sky now

STARLINK-5697

Track STARLINK-5697 now!
10-day predictions
STARLINK-5697 is classified as:


NORAD ID: 55589
Int'l Code: 2023-020W
Perigee: 565.6 km
Apogee: 566.7 km
Inclination: 43.0 °
Period: 95.8 minutes
Semi major axis: 6937 km
RCS: Unknown
Launch date: February 12, 2023
Source: United States (US)
Launch site: AIR FORCE EASTERN TEST RANGE (AFETR)
Your satellite tracking list
Your tracking list is empty




NASA's NSSDC Master Catalog

Two Line Element Set (TLE):
1 55589U 23020W   24262.36847903  .00000690  00000-0  66118-4 0  9996
2 55589  43.0033  44.1729 0000772 269.2112  90.8641 15.02547362 88091
Source of the keplerian elements: AFSPC